Location: Cluj-Napoca
(46.7712°N, 23.6236°E)
Time: 22:10:49
(UTC+03:00)

ISS - Visible Passes

Search period start: 29 July 2021 00:00
Search period end: 08 August 2021 00:00
Orbit: 419 x 421 km, 51.6° (Epoch: 29 July)

Date Brightness Start Highest point End Pass type
(mag) Time Alt. Az. Time Alt. Az. Time Alt. Az.
29 Jul -3.0 22:38:28 10° WNW 22:41:41 41° SW 22:42:58 28° SSE visible
30 Jul -3.6 21:51:04 10° WNW 21:54:25 64° SSW 21:57:20 13° SE visible
30 Jul -1.1 23:29:41 10° WSW 23:30:18 11° SW 23:30:18 11° SW visible
31 Jul -1.7 22:41:14 10° W 22:43:34 17° SW 22:44:43 15° SSW visible
01 Aug -2.2 21:53:29 10° W 21:56:23 26° SW 21:59:11 10° SSE visible
03 Aug -1.0 21:57:14 10° WSW 21:58:07 11° SW 21:59:00 10° SSW visible
